Miscellaneous Local Product
Issued by NWS Hastings, NE

Home | Current Version | Previous Version | Graphics & Text | Print | Product List | Glossary On
Versions: 1 2 3 4 5 6 7 8 9 10 11 12 13 14 15 16 17 18 19 20 21 22 23 24 25 26 27 28 29 30 31 32 33 34 35 36 37 38 39 40 41 42 43 44 45 46 47 48 49 50
000
AXUS43 KGID 180502
MISGRI

GID CWA HOURLY WEATHER ROUNDUP
NATIONAL WEATHER SERVICE HASTINGS NE
1200 AM CDT SAT APR 18 2015

NOTE: "FAIR" INDICATES FEW OR NO CLOUDS BELOW 12,000 FEET WITH NO
SIGNIFICANT WEATHER AND/OR OBSTRUCTIONS TO VISIBILITY.

...SOUTH CENTRAL NEBRASKA...

CITY           SKY/WX    TMP DP  RH WIND       PRES   REMARKS
GRAND ISLAND   MOCLDY    54  51  90 E6        29.99F
HASTINGS       CLOUDY    55  52  89 NE6       29.97F
KEARNEY        CLOUDY    54  52  94 NE8       29.98F
ORD            LGT RAIN  56  53  90 NE9       30.00S
YORK           CLOUDY    59  55  88 E9        29.99S
AURORA         MOCLDY    56  54  91 E8        29.99S
LEXINGTON      CLOUDY    58  55  92 E9        29.98F
HOLDREGE       CLOUDY    57  54  88 E9        29.97F
HEBRON         CLOUDY    58  54  86 CALM      29.96F

...NEBRASKA PANHANDLE...

CITY           SKY/WX    TMP DP  RH WIND       PRES   REMARKS
CHADRON        CLOUDY    47  46  97 N6        30.07S
ALLIANCE       LGT RAIN  48  47  96 NE12      30.02F
SCOTTSBLUFF    RAIN      43  43 100 NW6       30.06S FOG
SIDNEY         RAIN      42  40  92 W20       30.05R FOG

...WESTERN AND NORTH CENTRAL NEBRASKA...

CITY           SKY/WX    TMP DP  RH WIND       PRES   REMARKS
VALENTINE      RAIN      53  49  86 N9        30.05F
AINSWORTH      LGT RAIN  54  51  89 S3        30.07R
ONEILL         CLOUDY    57  49  73 NE8       30.03F
BROKEN BOW     PTCLDY    54  51  90 E8        30.00S
IMPERIAL       LGT RAIN  51  44  77 SW15      29.98F
NORTH PLATTE   CLOUDY    55  52  89 E16       29.98S
MCCOOK         CLOUDY    53  47  79 NW12      29.96F

...EASTERN NEBRASKA...

CITY           SKY/WX    TMP DP  RH WIND       PRES   REMARKS
NORFOLK        NOT AVBL
SO SIOUX CITY  CLOUDY    64  47  53 CALM      30.01F
TEKAMAH        CLOUDY    63  51  65 NE8       29.99F
COLUMBUS       CLOUDY    61  50  67 NE7       30.01F
ALBION         CLOUDY    60  49  67 E10       30.01S
OMAHA EPPLEY   CLOUDY    63  55  75 N3        29.99S
OFFUTT AFB     CLOUDY    64  56  73 NE5       29.97F
MILLARD        CLOUDY    65  57  75 CALM      29.99S
LINCOLN        CLOUDY    63  56  78 CALM      29.98F
NEBRASKA CITY  CLOUDY    64  51  62 SE7       29.99F
BEATRICE       CLOUDY    61  55  82 E3        29.98S
FALLS CITY     CLOUDY    63  55  75 NE5       29.97S

...NORTHERN KANSAS...

CITY           SKY/WX    TMP DP  RH WIND       PRES   REMARKS
GOODLAND       MOCLDY    47  47 100 E5        29.96F
HILL CITY      TSTM      56  52  86 NW6       29.95S FOG
NORTON         LGT RAIN  55  52  88 SE9       29.95S
PHILLIPSBURG   CLOUDY    63  57  82 NE10      29.94F
SMITH CENTER   MOCLDY    59  54  82 E7        29.96S
BELOIT         PTCLDY    61  54  77 E6        29.94S
HAYS           CLOUDY    61  52  72 SE9       29.94F
RUSSELL        CLOUDY    61  57  87 S9        29.93F
CONCORDIA      CLOUDY    59  57  93 SE6       29.95F
SALINA         CLOUDY    62  58  86 SE6       29.95F
TOPEKA         CLOUDY    61  57  87 CALM      29.96F



USA.gov is the U.S. government's official web portal to all federal, state and local government web resources and services.